Location: Rooftop Observatory
(39.0308°N, 87.1711°W)
Time: 02:30:25
(UTC-05:00)

Terra - Visible Passes

Search period start: 01 September 2014 00:00
Search period end: 11 September 2014 00:00
Orbit: 702 x 703 km, 98.2° (Epoch: 07 September)

Date Brightness Start Highest point End Pass type
(mag) Time Alt. Az. Time Alt. Az. Time Alt. Az.
01 Sep 3.9 22:48:58 23° N 22:48:58 23° N 22:50:43 10° N visible
02 Sep 3.9 21:53:27 16° NNE 21:53:27 16° NNE 21:54:54 10° NNE visible
02 Sep 4.6 23:32:21 15° NW 23:32:21 15° NW 23:33:11 10° NNW visible
03 Sep 4.0 22:36:50 21° N 22:36:50 21° N 22:38:26 10° N visible
04 Sep 4.1 21:41:19 13° NE 21:41:19 13° NE 21:42:12 10° NNE visible
04 Sep 4.5 23:20:13 16° NNW 23:20:13 16° NNW 23:21:08 10° NNW visible
05 Sep 4.0 22:24:42 19° N 22:24:42 19° N 22:26:06 10° N visible
06 Sep 4.3 21:29:11 10° NE 21:29:11 10° NE 21:29:14 10° NE visible
06 Sep 4.5 23:08:05 16° NNW 23:08:05 16° NNW 23:09:01 10° NNW visible
07 Sep 4.1 22:12:34 16° NNE 22:12:34 16° NNE 22:13:41 10° N visible
08 Sep 4.5 22:55:57 16° NNW 22:55:57 16° NNW 22:56:50 10° NNW visible
09 Sep 4.2 22:00:26 14° NNE 22:00:26 14° NNE 22:01:11 10° NNE visible
10 Sep 4.5 22:43:48 15° N 22:43:48 15° N 22:44:35 10° N visible
